Regional Weather Roundup
Issued by NWS

Home | Current Version | Previous Version | Text Only | Print | Product List | Glossary On
Versions: 1 2 3 4 5 6 7 8 9 10 11 12 13 14 15 16 17 18 19 20 21 22 23 24 25 26 27 28 29 30 31 32 33 34 35 36 37 38 39 40 41 42 43 44 45 46 47 48 49 50
000
ASUS43 KTOP 020908
RWRKS

WEATHER ROUNDUP FOR KANSAS
NATIONAL WEATHER SERVICE GOODLAND KS
400 AM CDT TUE JUN 02 2015

NOTE:  "FAIR" INDICATES FEW OR NO CLOUDS BELOW 12,000 FEET WITH NO
SIGNIFICANT WEATHER AND/OR OBSTRUCTIONS TO VISIBILITY.

KSZ001>006-013>018-027>032-041>047-021000-
NORTHWEST KANSAS

CITY           SKY/WX    TMP DP  RH WIND       PRES   REMARKS
GOODLAND       CLOUDY    61  52  72 E18       30.00F
HAYS           CLOUDY    63  54  72 SE14      29.98F
HILL CITY      CLOUDY    66  61  84 NW6G17    30.04R
RUSSELL        MOCLDY    62  58  86 SE15      29.98F
$$

KSZ061>065-074>080-084>089-021000-
SOUTHWEST KANSAS

CITY           SKY/WX    TMP DP  RH WIND       PRES   REMARKS
DODGE CITY     PTCLDY    65  61  87 S16       29.99F
ELKHART          N/A     61  54  78 S6          N/A
GARDEN CITY    MOCLDY    64  62  93 S12       29.95F
GREAT BEND     MOCLDY    63  57  82 SE13      30.00F
LIBERAL        PTCLDY    66  61  82 S12       29.98F
PRATT          MOCLDY    61  59  94 SE9       30.03S
$$

KSZ066>073-081>083-090>101-021000-
SOUTHEAST KANSAS

CITY           SKY/WX    TMP DP  RH WIND       PRES   REMARKS
CHANUTE        CLOUDY    58  55  90 E9        30.07F
COFFEYVILLE    CLOUDY    61  58  90 E6        30.06F
HUTCHINSON     MOCLDY    63  58  83 SE8       30.02F
MEDICINE LODGE   N/A     64  60  87 SE9       30.01S
NEWTON         CLOUDY    61  54  77 SE12      30.06F
PARSONS        CLOUDY    60  57  89 VRB3      30.08S
WICHITA INTL   MOCLDY    64  58  80 SE9       30.03F
WICHITA JABRA  MOCLDY    61  58  90 SE8       30.04S
WICHITA MCCONL CLOUDY    63  58  85 E10       30.04S
WINFIELD       PTCLDY    63  59  87 E7        30.05F
$$

KSZ007>012-019>026-033>040-048>060-102>105-021000-
NORTHEAST KANSAS

CITY           SKY/WX    TMP DP  RH WIND       PRES   REMARKS
CONCORDIA      CLOUDY    60  56  86 SE12      30.02F
EMPORIA        CLOUDY    57  54  89 SE12      30.07F
LAWRENCE       CLOUDY    59  53  80 SE8       30.10S
MANHATTAN      CLOUDY    59  55  87 SE7       30.06F
MARYSVILLE     MOCLDY    55  54  94 S9        30.06R
OLATHE IND     CLOUDY    58  53  84 SE6       30.11S
OLATHE EXE     CLOUDY    58  53  84 SE5       30.10S
SALINA         MOCLDY    62  56  80 SE10      30.03S
TOPEKA BILLARD PTCLDY    57  54  89 E8        30.08F
TOPEKA FORBES  MOCLDY    56  53  90 SE6       30.08S
$$



USA.gov is the U.S. government's official web portal to all federal, state and local government web resources and services.